{"data":{"norad_id":67466,"intl_designator":"2026-008X","name":"STARLINK-36520","alt_names":[],"object_type":"PAYLOAD","status":"ACTIVE","operator":null,"country":"US","launch_date":"2026-01-14","launch_site_code":"AFETR","launch_vehicle":null,"mission":null,"orbit_class":"UNKNOWN","rcs_meters":null,"size_class":null,"mass_kg":null,"dimensions":null,"purposes":["comms"],"wikipedia_slug":null,"has_3d_model":false,"image_url":null,"decayed_at":null,"tle_current":{"epoch":"2026-09-19T22:08:50.871264Z","epoch_age_seconds":122122,"freshness":"FRESH","line1":"1 67466U 26008X   26262.92281101  .00022567  00000+0  82651-3 0  9993","line2":"2 67466  43.0052 188.6468 0001917 272.1235  87.9397 15.27602022 39277","mean_motion":15.27602022,"eccentricity":0.0001917,"inclination_deg":43.0052,"raan_deg":188.6468,"arg_perigee_deg":272.1235,"mean_anomaly_deg":87.9397,"bstar":0.00082651,"rev_number":3927,"period_min":94.265389758695,"perigee_km":481.66787830774,"apogee_km":484.29843177519,"semimajor_km":6861.1201550415,"source":"CELESTRAK","updated_at":"2026-09-20T09:00:43.552621Z"}}}